Torna al catalogo

STARLINK-37663

AttivoComunicazioniSSO
NORAD 69048·PAYLOAD·🇺🇸 United States

Lanciato May 6, 2026 da Vandenberg Space Force Base

Loading…

Prossimi Passaggi (prossime 24 ore)

TLE

AggiornatoSource: CelesTrak SupGP

Epoca: Sep 14, 2026, 22:33 UTC

1 69048C 26101Z   26257.94006944  .00076360  00000+0  23726-2 0  2575
2 69048  97.2842 111.5537 0001975  91.4675 140.9334 15.33369250    10

Traccia STARLINK-37663 in tempo reale con AllMySat

Download on the App Store